Weather History for KCSV - February, 2014

Change the Weather History Date:

Sunday, February 16, 2014

  Actual Average Record
Temperature  
Mean Temperature 40 °F 40 °F  
Max Temperature 50 °F 49 °F 71 °F (1961)
Min Temperature 29 °F 30 °F -3 °F (1958)
Degree Days  
Heating Degree Days 25    
Month to date heating degree days 496  
Since 1 July heating degree days 3268  
Cooling Degree Days 0    
Month to date cooling degree days 0  
Year to date cooling degree days 0  
Moisture  
Dew Point 26 °F    
Average Humidity 62    
Maximum Humidity 82    
Minimum Humidity 42    
Precipitation  
Precipitation 0.00 in 0.16 in 1.46 in (2001)
Month to date precipitation 1.95 2.54  
Year to date precipitation 4.18 7.30  
Sea Level Pressure  
Sea Level Pressure 30.11 in    
Wind  
Wind Speed 5 mph (WNW)    
Max Wind Speed 14 mph    
Max Gust Speed 21 mph    
Visibility 10 miles    
Events      
T = Trace of Precipitation, MM = Missing Value Source: NWS Daily Summary

Daily Weather History Graph

Daily Weather History Graph

Search for Another Location

Airport or City:

Trip Planner

Search our weather history database for the weather conditions in past years. The results will help you decide how hot, cold, wet, or windy it might be!

Date:

Astronomy

Feb. 16, 2014 Rise Set
Actual Time 6:26 AM CST 5:22 PM CST
Civil Twilight 6:00 AM CST 5:49 PM CST
Nautical Twilight 5:30 AM CST 6:19 PM CST
Astronomical Twilight 5:00 AM CST 6:48 PM CST
Moon 7:13 PM CST (2/16) 7:00 AM CST (2/16)
Length of Visible Light 11h 48m
Length of Day
10h 56m
Full, 97% of the Moon is Illuminated
Feb 16
Full
Feb 22
Last Quarter
Mar 1
New
Mar 8
First Quarter
Mar 16
Full

Hourly Weather History & Observations

Time (CST) Temp. Windchill Dew Point Humidity Pressure Visibility Wind Dir Wind Speed Gust Speed Precip Events Conditions
12:53 AM 32.0 °F 26.4 °F 23.0 °F 69% 30.04 in 10.0 mi Variable 5.8 mph - N/A   Overcast
1:53 AM 33.1 °F 27.7 °F 19.9 °F 59% 30.05 in 10.0 mi SW 5.8 mph - N/A   Overcast
2:53 AM 33.1 °F - 19.9 °F 59% 30.05 in 10.0 mi Calm Calm - N/A   Overcast
3:53 AM 30.9 °F - 21.0 °F 67% 30.06 in 10.0 mi Calm Calm - N/A   Partly Cloudy
4:53 AM 30.0 °F 26.5 °F 19.9 °F 66% 30.06 in 10.0 mi SW 3.5 mph - N/A   Clear
5:53 AM 33.1 °F 28.7 °F 21.9 °F 64% 30.06 in 10.0 mi WSW 4.6 mph - N/A   Clear
6:53 AM 33.1 °F 27.7 °F 21.9 °F 64% 30.07 in 10.0 mi West 5.8 mph - N/A   Clear
7:53 AM 36.0 °F 30.3 °F 24.1 °F 62% 30.08 in 10.0 mi West 6.9 mph - N/A   Clear
8:53 AM 39.0 °F 35.7 °F 26.1 °F 60% 30.10 in 10.0 mi Variable 4.6 mph - N/A   Clear
9:53 AM 42.1 °F 37.7 °F 27.0 °F 55% 30.11 in 10.0 mi WSW 6.9 mph - N/A   Clear
10:53 AM 44.1 °F - 28.0 °F 53% 30.11 in 10.0 mi Calm Calm - N/A   Clear
11:53 AM 48.0 °F - 28.9 °F 48% 30.09 in 10.0 mi WSW 8.1 mph - N/A   Clear
12:53 PM 48.9 °F - 28.9 °F 46% 30.08 in 10.0 mi WNW 9.2 mph 20.7 mph N/A   Clear
1:53 PM 50.0 °F - 28.9 °F 44% 30.07 in 10.0 mi West 10.4 mph 16.1 mph N/A   Clear
2:53 PM 50.0 °F - 28.9 °F 44% 30.09 in 10.0 mi West 10.4 mph - N/A   Clear
3:53 PM 48.9 °F - 28.0 °F 44% 30.12 in 10.0 mi WNW 9.2 mph - N/A   Clear
4:53 PM 46.0 °F 43.9 °F 28.0 °F 50% 30.14 in 10.0 mi WNW 4.6 mph - N/A   Clear
5:53 PM 44.1 °F 41.5 °F 28.0 °F 53% 30.16 in 10.0 mi NNW 4.6 mph - N/A   Clear
6:53 PM 42.1 °F 39.2 °F 28.0 °F 58% 30.18 in 10.0 mi NW 4.6 mph - N/A   Clear
7:53 PM 39.0 °F 34.8 °F 28.0 °F 65% 30.19 in 10.0 mi North 5.8 mph - N/A   Clear
8:53 PM 36.0 °F 33.3 °F 28.9 °F 76% 30.18 in 10.0 mi NE 3.5 mph - N/A   Clear
9:53 PM 35.1 °F - 28.0 °F 76% 30.19 in 10.0 mi Calm Calm - N/A   Clear
10:53 PM 34.0 °F 29.8 °F 28.0 °F 79% 30.18 in 10.0 mi NE 4.6 mph - N/A   Clear
11:53 PM 33.1 °F 30.0 °F 27.0 °F 78% 30.18 in 10.0 mi NE 3.5 mph - N/A   Clear